• In Austria
  • List of Countries
  • For 7 days
  • Water Temperature
  • Satellite Maps
  • Weather Map
  • News
  • Weather Widgets
  • user-avatar
    Login

    Hourly Weather Solden

    Today, 25 February, Sunday

    Time Temperature Precipitation Wind Pressure Humidity
    00:00 -10°C° 0.1 mm 1 mps 574 mmHg 92%
    01:00 -10°C° 0.1 mm 1 mps 574 mmHg 91%
    02:00 -11°C° 0.1 mm 1 mps 574 mmHg 91%
    03:00 -11°C° 0.1 mm 1 mps 574 mmHg 90%
    04:00 -11°C° 0.1 mm 1 mps 574 mmHg 90%
    05:00 -12°C° 0.1 mm 1 mps 573 mmHg 89%
    06:00 -12°C° 0.1 mm 1 mps 573 mmHg 89%
    07:00 -13°C° 0.1 mm 1 mps 573 mmHg 88%
    08:00 -12°C° 0.1 mm 1 mps 574 mmHg 85%
    09:00 -11°C° 0.1 mm 1 mps 574 mmHg 82%
    10:00 -12°C° 0.1 mm 2 mps 575 mmHg 78%
    11:00 -12°C° 0.1 mm 2 mps 575 mmHg 77%
    12:00 -10°C° 0.1 mm 2 mps 575 mmHg 76%
    13:00 -10°C° 0.1 mm 2 mps 575 mmHg 74%
    14:00 -12°C° 0.1 mm 2 mps 575 mmHg 76%
    15:00 -12°C° 0.1 mm 2 mps 574 mmHg 78%
    16:00 -13°C° 0.1 mm 2 mps 574 mmHg 80%
    17:00 -15°C° 0.1 mm 2 mps 573 mmHg 83%
    18:00 -17°C° 0.1 mm 2 mps 572 mmHg 86%
    19:00 -18°C° 0.1 mm 2 mps 572 mmHg 89%
    20:00 -17°C° 0.1 mm 1 mps 571 mmHg 87%
    21:00 -18°C° 0.1 mm 1 mps 571 mmHg 86%
    22:00 -19°C° 0.1 mm 1 mps 571 mmHg 84%
    23:00 -20°C° 0 mm 1 mps 570 mmHg 82%

    Tomorrow, 26 February, Monday

    Time Temperature Precipitation Wind Pressure Humidity
    00:00 -21°C° 0 mm 1 mps 570 mmHg 81%
    01:00 -21°C° 0 mm 1 mps 570 mmHg 79%
    02:00 -22°C° 0 mm 1 mps 569 mmHg 78%
    03:00 -22°C° 0 mm 1 mps 569 mmHg 77%
    04:00 -23°C° 0 mm 1 mps 568 mmHg 76%
    05:00 -23°C° 0 mm 1 mps 568 mmHg 76%
    06:00 -27°C° 0 mm 2 mps 568 mmHg 77%
    07:00 -27°C° 0 mm 2 mps 568 mmHg 77%
    08:00 -25°C° 0 mm 2 mps 569 mmHg 74%
    09:00 -24°C° 0 mm 2 mps 570 mmHg 71%
    10:00 -21°C° 0 mm 2 mps 571 mmHg 67%
    11:00 -20°C° 0 mm 2 mps 571 mmHg 65%
    12:00 -19°C° 0 mm 2 mps 571 mmHg 63%
    13:00 -18°C° 0 mm 2 mps 571 mmHg 61%
    14:00 -18°C° 0 mm 2 mps 571 mmHg 64%
    15:00 -18°C° 0 mm 2 mps 571 mmHg 66%
    16:00 -18°C° 0 mm 2 mps 570 mmHg 68%
    17:00 -20°C° 0 mm 2 mps 570 mmHg 73%
    18:00 -23°C° 0 mm 2 mps 569 mmHg 77%
    19:00 -25°C° 0 mm 2 mps 568 mmHg 81%
    20:00 -25°C° 0 mm 2 mps 568 mmHg 81%
    21:00 -26°C° 0 mm 2 mps 568 mmHg 81%
    22:00 -27°C° 0 mm 2 mps 568 mmHg 80%
    23:00 -27°C° 0 mm 2 mps 567 mmHg 79%

    Day after tomorrow, 27 February, Tuesday

    Time Temperature Precipitation Wind Pressure Humidity
    00:00 -25°C° 0 mm 1 mps 567 mmHg 78%
    01:00 -25°C° 0 mm 1 mps 567 mmHg 77%
    02:00 -25°C° 0 mm 1 mps 566 mmHg 77%
    03:00 -25°C° 0 mm 1 mps 566 mmHg 76%
    04:00 -25°C° 0 mm 1 mps 566 mmHg 76%
    05:00 -27°C° 0 mm 1 mps 566 mmHg 76%
    06:00 -27°C° 0 mm 1 mps 566 mmHg 76%
    07:00 -27°C° 0 mm 1 mps 565 mmHg 76%
    08:00 -23°C° 0 mm 1 mps 567 mmHg 71%
    09:00 -21°C° 0 mm 1 mps 568 mmHg 67%
    10:00 -19°C° 0 mm 1 mps 569 mmHg 63%
    11:00 -18°C° 0 mm 1 mps 569 mmHg 61%
    12:00 -17°C° 0 mm 1 mps 569 mmHg 60%
    13:00 -15°C° 0 mm 1 mps 570 mmHg 59%
    14:00 -15°C° 0 mm 1 mps 570 mmHg 61%
    15:00 -16°C° 0 mm 1 mps 570 mmHg 64%
    16:00 -16°C° 0 mm 1 mps 569 mmHg 67%
    17:00 -17°C° 0.1 mm 1 mps 569 mmHg 72%
    18:00 -18°C° 0.1 mm 1 mps 569 mmHg 77%
    19:00 -20°C° 0.1 mm 0 mps 568 mmHg 82%
    20:00 -21°C° 0 mm 0 mps 568 mmHg 82%
    21:00 -21°C° 0 mm 0 mps 568 mmHg 83%
    22:00 -22°C° 0 mm 0 mps 568 mmHg 83%
    23:00 -22°C° 0 mm 1 mps 568 mmHg 83%

    28 February, Wednesday

    Time Temperature Precipitation Wind Pressure Humidity
    00:00 -22°C° 0 mm 1 mps 568 mmHg 83%
    01:00 -22°C° 0 mm 1 mps 568 mmHg 82%
    02:00 -23°C° 0 mm 1 mps 568 mmHg 82%
    03:00 -23°C° 0 mm 1 mps 568 mmHg 82%
    04:00 -23°C° 0 mm 1 mps 568 mmHg 82%
    05:00 -23°C° 0 mm 1 mps 568 mmHg 81%
    06:00 -23°C° 0 mm 1 mps 568 mmHg 81%
    07:00 -24°C° 0 mm 1 mps 568 mmHg 80%
    08:00 -21°C° 0 mm 1 mps 569 mmHg 75%
    09:00 -18°C° 0 mm 1 mps 571 mmHg 69%
    10:00 -16°C° 0 mm 1 mps 572 mmHg 63%
    11:00 -15°C° 0 mm 1 mps 573 mmHg 61%
    12:00 -14°C° 0 mm 1 mps 573 mmHg 58%
    13:00 -14°C° 0 mm 2 mps 573 mmHg 56%
    14:00 -14°C° 0 mm 2 mps 573 mmHg 59%
    15:00 -14°C° 0 mm 2 mps 573 mmHg 62%
    16:00 -14°C° 0 mm 2 mps 573 mmHg 65%
    17:00 -16°C° 0 mm 2 mps 573 mmHg 71%
    18:00 -17°C° 0 mm 2 mps 572 mmHg 77%
    19:00 -19°C° 0 mm 2 mps 572 mmHg 83%
    20:00 -19°C° 0 mm 2 mps 572 mmHg 83%
    21:00 -19°C° 0 mm 2 mps 572 mmHg 83%
    22:00 -19°C° 0 mm 2 mps 572 mmHg 83%
    23:00 -19°C° 0 mm 2 mps 572 mmHg 83%

    1 March, Thursday

    Time Temperature Precipitation Wind Pressure Humidity
    00:00 -19°C° 0 mm 2 mps 572 mmHg 83%
    01:00 -19°C° 0 mm 2 mps 572 mmHg 83%
    02:00 -19°C° 0 mm 2 mps 571 mmHg 83%
    03:00 -18°C° 0 mm 2 mps 571 mmHg 83%
    04:00 -18°C° 0 mm 2 mps 571 mmHg 83%
    05:00 -18°C° 0.1 mm 2 mps 571 mmHg 84%
    06:00 -17°C° 0.1 mm 2 mps 571 mmHg 84%
    07:00 -17°C° 0.1 mm 2 mps 571 mmHg 84%
    08:00 -15°C° 0.1 mm 2 mps 571 mmHg 83%
    09:00 -15°C° 0.1 mm 3 mps 572 mmHg 82%
    10:00 -13°C° 0.1 mm 3 mps 572 mmHg 80%
    11:00 -12°C° 0.3 mm 3 mps 572 mmHg 81%
    12:00 -10°C° 0.3 mm 3 mps 572 mmHg 81%
    13:00 -9°C° 0.3 mm 3 mps 572 mmHg 81%
    14:00 -9°C° 0.4 mm 3 mps 572 mmHg 82%
    15:00 -9°C° 0.4 mm 3 mps 572 mmHg 84%
    16:00 -9°C° 0.4 mm 3 mps 571 mmHg 85%
    17:00 -9°C° 0.3 mm 2 mps 571 mmHg 87%
    18:00 -9°C° 0.3 mm 2 mps 570 mmHg 89%
    19:00 -10°C° 0.3 mm 2 mps 570 mmHg 91%
    20:00 -10°C° 0.1 mm 2 mps 570 mmHg 90%
    21:00 -10°C° 0.1 mm 2 mps 570 mmHg 89%
    22:00 -10°C° 0.1 mm 2 mps 569 mmHg 89%
    23:00 -9°C° 0.1 mm 2 mps 569 mmHg 88%

    2 March, Friday

    Time Temperature Precipitation Wind Pressure Humidity
    00:00 -9°C° 0.1 mm 2 mps 569 mmHg 88%
    01:00 -9°C° 0.1 mm 2 mps 569 mmHg 88%
    02:00 -9°C° 0 mm 2 mps 568 mmHg 88%
    03:00 -9°C° 0 mm 2 mps 568 mmHg 88%
    04:00 -10°C° 0 mm 2 mps 567 mmHg 88%
    05:00 -9°C° 0 mm 2 mps 567 mmHg 87%
    06:00 -9°C° 0 mm 2 mps 567 mmHg 87%
    07:00 -9°C° 0 mm 2 mps 567 mmHg 87%
    08:00 -7°C° 0.1 mm 2 mps 568 mmHg 86%
    09:00 -5°C° 0.1 mm 2 mps 568 mmHg 85%
    10:00 -1°C° 0.1 mm 1 mps 569 mmHg 84%
    11:00 -1°C° 0.4 mm 1 mps 569 mmHg 84%
    12:00 -1°C° 0.4 mm 1 mps 570 mmHg 85%
    13:00 0°C° 0.4 mm 1 mps 570 mmHg 86%
    14:00 0°C° 0.3 mm 1 mps 570 mmHg 86%
    15:00 0°C° 0.3 mm 1 mps 570 mmHg 86%
    16:00 0°C° 0.3 mm 1 mps 570 mmHg 86%
    17:00 -2°C° 0.1 mm 1 mps 569 mmHg 89%
    18:00 -3°C° 0.1 mm 1 mps 569 mmHg 91%
    19:00 -4°C° 0.1 mm 1 mps 568 mmHg 93%
    20:00 -4°C° 0 mm 1 mps 569 mmHg 93%
    21:00 -6°C° 0 mm 1 mps 569 mmHg 93%
    22:00 -6°C° 0 mm 1 mps 569 mmHg 93%
    23:00 -6°C° 0.1 mm 1 mps 569 mmHg 92%
    Show more